RH
67 63 62 62 65 66 65 63 62 62 62 63 62 61 60 60 60 61 61 60 59 61 62 58 56 55 55 54 53 52 50 49 48 48 49 48 46 45 45 45 47 50 48 47 49 48 42 40 42 43 42 41 44 46 47 48 49 51 49 46 44 42 42 43 45 46 47 48 47 46 46 46 46 47 48 49 52 53 54 51 43 42 43 43 43
62 60 60 61 63 64 63 62 61 59 58 60 60 60 59 59 59 57 57 61 60 61 62 59 57 54 52 49 48 49 48 47 46 47 49 48 47 46 47 46 46 50 49 49 51 50 44 40 42 43 42 41 43 47 48 49 51 51 50 48 46 43 43 42 44 45 46 47 48 47 47 46 48 50 50 51 53 55 54 50 46 45 45 44 43
59 58 60 62 62 63 63 62 59 56 55 55 55 55 55 55 54 52 54 58 57 59 59 55 52 51 50 46 45 45 45 45 44 46 48 49 48 46 48 47 47 49 50 52 54 51 45 40 42 44 43 41 42 45 46 50 51 50 49 48 46 44 43 43 45 46 46 48 49 48 48 48 49 50 51 52 53 54 50 45 45 44 41 39 39
59 57 57 58 58 57 57 56 55 53 51 49 48 48 50 50 48 47 47 48 49 54 54 50 47 47 48 45 44 44 45 46 45 47 49 50 48 47 48 47 48 50 50 52 54 52 48 43 43 44 42 40 40 42 46 49 50 49 49 48 45 44 44 44 47 49 50 50 49 48 49 48 48 47 49 49 50 51 46 42 42 41 39 36 35
56 53 51 51 51 50 50 50 50 50 48 49 50 48 48 48 47 45 44 44 46 49 49 47 44 43 43 42 43 44 45 46 46 47 49 51 49 46 46 47 49 51 51 52 53 51 50 47 45 45 45 43 41 41 44 48 50 50 49 48 44 43 43 46 49 52 54 54 52 49 50 50 48 45 44 43 44 46 43 41 40 38 36 33 32
52 51 51 48 48 48 49 49 47 48 48 48 49 48 46 47 47 43 43 46 47 48 47 45 43 43 43 42 45 46 46 46 45 46 50 52 51 48 47 49 50 51 52 53 52 50 50 50 49 51 50 48 45 41 43 48 51 50 48 45 43 43 45 49 53 55 56 57 55 53 52 50 46 43 41 39 38 38 37 37 36 33 32 31 32
53 55 55 49 47 47 48 48 45 46 47 46 47 48 48 48 47 46 47 50 49 48 47 43 43 46 46 47 47 48 48 47 47 49 51 53 52 52 51 51 51 50 53 54 53 50 49 51 52 53 53 51 47 42 44 48 50 49 45 43 43 45 48 52 55 57 58 57 56 55 50 44 40 38 37 36 34 33 32 32 32 32 32 32 32
57 57 54 47 45 46 46 44 43 43 44 45 48 50 49 48 47 48 48 50 49 46 45 43 43 45 47 50 49 49 50 50 51 51 52 53 52 54 53 51 50 50 53 55 53 51 49 53 54 53 54 52 48 44 44 48 49 46 43 42 44 46 50 54 56 56 57 57 57 52 43 37 35 34 35 36 34 33 32 32 36 37 34 34 36
59 54 45 41 42 43 42 41 39 40 42 43 45 48 47 45 44 45 45 46 46 43 43 44 45 45 46 52 54 54 54 53 54 55 56 55 54 54 54 52 51 51 54 54 52 51 51 53 55 52 53 54 51 46 45 47 47 44 42 41 42 45 51 55 57 57 56 58 59 51 38 32 32 32 35 38 39 37 34 34 37 36 35 36 36
57 48 35 35 38 39 39 38 38 40 42 42 45 46 45 42 44 46 45 45 45 44 44 47 49 50 52 55 59 60 59 57 58 60 60 58 55 56 56 56 54 51 50 47 48 53 52 52 53 52 53 55 54 49 47 46 43 42 40 40 42 45 51 56 58 56 56 57 55 47 35 28 29 30 32 34 36 36 33 32 33 34 36 35 34
51 41 32 36 38 38 38 39 41 46 47 46 47 47 46 45 48 50 49 49 50 51 52 54 55 57 60 61 64 65 65 64 65 65 62 60 58 59 59 59 56 48 44 43 48 53 52 51 52 53 53 54 55 51 47 43 39 39 39 41 45 47 50 59 60 56 58 58 53 42 30 26 28 30 30 30 31 31 31 32 34 36 36 34 34
46 37 34 37 39 39 40 44 48 51 52 51 51 51 53 53 53 54 54 54 56 57 57 58 59 61 65 67 67 68 69 70 70 69 66 64 62 62 62 62 57 51 49 50 52 52 51 51 51 53 51 52 52 49 44 38 36 36 37 40 45 47 50 57 59 57 59 57 50 37 27 26 28 29 30 29 30 30 32 35 37 37 36 36 35
43 34 37 39 40 42 45 51 51 53 55 56 57 57 58 58 58 57 57 58 60 61 62 62 64 65 66 66 66 68 71 71 72 71 69 68 67 67 66 64 60 56 57 55 51 48 48 49 50 51 48 47 46 42 37 33 33 32 33 37 41 48 52 56 57 57 57 54 44 32 26 26 27 28 28 29 30 32 35 38 39 38 37 36 35
44 42 44 43 44 47 49 51 51 53 56 56 59 60 60 58 58 58 59 62 63 65 65 65 66 67 67 66 65 66 70 72 71 70 69 68 69 70 69 66 61 58 59 56 51 46 47 49 51 50 46 44 41 35 29 28 28 29 31 35 40 47 53 58 60 57 53 48 39 29 27 26 26 28 30 31 33 36 40 40 38 37 37 35 34
52 56 51 47 49 50 50 51 51 52 54 57 59 59 58 58 58 59 62 63 62 64 64 64 66 68 71 71 68 66 69 71 68 67 67 67 68 70 71 69 65 61 59 55 51 49 50 53 52 48 45 41 36 30 26 25 26 27 29 33 39 44 48 56 62 58 50 42 33 27 25 24 26 28 30 32 35 39 40 37 35 34 34 34 33
58 61 54 52 52 50 51 51 51 52 55 60 60 58 58 59 59 61 64 64 64 66 66 66 67 69 73 73 70 68 68 69 67 66 66 65 67 69 70 70 66 63 61 57 55 54 54 55 51 46 42 37 32 29 28 27 26 26 30 34 38 43 46 50 54 52 47 38 29 25 23 23 26 27 30 34 37 37 34 32 31 31 31 32 33
60 62 59 58 57 54 53 51 53 56 59 62 61 59 59 61 62 63 64 65 65 66 66 67 66 69 74 70 68 67 67 68 68 67 66 66 68 68 70 68 66 65 64 62 61 59 56 55 48 42 39 35 32 31 30 30 29 30 34 37 39 42 43 44 48 48 46 36 26 23 22 23 25 27 31 35 35 32 29 29 28 27 29 32 35
63 64 64 62 60 57 55 54 56 58 61 62 61 60 62 63 64 64 64 64 64 63 63 65 65 68 69 67 68 67 66 68 69 68 68 70 69 68 70 67 66 66 66 65 62 60 56 54 47 40 37 33 32 31 33 34 33 34 36 38 40 40 39 40 44 44 40 29 23 22 22 24 26 28 33 34 31 28 28 27 26 26 29 32 34
69 66 64 64 62 58 58 57 56 57 59 58 58 62 64 64 63 63 64 64 64 63 63 64 64 65 65 67 69 68 68 69 68 67 69 70 68 66 68 66 64 65 65 63 59 57 54 51 45 40 34 31 31 32 34 35 36 36 36 39 41 40 40 44 42 40 34 25 22 23 24 26 28 31 32 30 27 27 26 25 25 26 29 31 32
70 65 62 62 61 60 59 57 55 54 55 54 56 61 63 63 62 62 62 62 61 60 62 65 65 64 65 67 69 69 68 68 67 67 68 67 64 63 64 63 63 63 62 59 55 53 50 47 43 38 33 31 31 32 34 36 37 37 38 41 42 42 44 47 41 36 30 24 23 24 26 28 30 32 29 27 25 25 25 24 26 27 29 30 32
66 66 63 62 60 60 58 56 55 52 52 54 55 57 60 62 62 61 60 59 58 60 65 67 65 64 66 67 68 69 67 66 67 66 66 65 63 62 62 62 62 60 58 56 52 50 47 45 42 38 35 33 32 33 36 38 39 39 40 40 41 45 45 42 37 33 28 24 24 26 29 31 31 29 26 25 24 24 24 25 27 29 30 31 33
63 65 64 61 60 62 58 55 55 53 53 55 56 57 59 62 62 60 59 59 59 60 65 64 62 65 66 66 67 67 66 65 65 64 65 65 63 62 61 60 59 57 54 52 51 48 46 45 42 38 37 35 33 34 37 39 40 40 39 38 41 45 44 38 35 33 29 25 26 28 30 31 29 26 24 24 23 23 24 26 28 30 32 33 35
60 64 64 59 59 65 61 56 56 57 59 56 56 59 58 60 62 61 61 62 61 59 61 61 62 65 65 64 65 64 64 64 64 64 64 64 63 61 60 58 56 54 52 51 50 47 45 44 41 40 40 39 39 39 41 42 42 42 39 37 38 40 41 38 35 33 29 27 28 30 30 29 26 24 22 22 23 24 27 29 30 31 33 34 35
58 63 64 60 61 64 61 58 59 60 61 56 57 60 58 59 59 61 60 60 62 61 60 59 61 63 62 62 61 61 62 62 63 64 63 62 62 60 58 56 54 53 52 51 49 47 45 43 42 42 44 47 48 49 49 45 44 44 39 37 36 37 39 37 35 33 30 28 29 30 29 26 23 22 22 22 24 27 29 30 31 33 34 35 36
55 61 63 63 63 62 58 58 62 63 59 58 63 61 57 58 57 57 55 55 60 63 62 60 60 62 61 60 59 59 60 61 62 61 60 58 57 57 56 54 53 53 52 52 51 48 45 44 46 48 51 53 52 50 48 45 42 39 35 35 36 37 38 36 35 33 30 29 29 29 27 23 22 22 22 24 27 29 30 31 32 33 35 37 40
53 59 63 64 64 62 58 57 63 64 58 59 65 62 57 57 55 51 50 51 58 60 61 62 60 62 62 59 58 57 57 59 58 57 56 56 56 56 55 53 53 52 52 52 51 49 47 48 50 52 54 53 50 46 42 39 37 33 32 34 36 37 36 36 36 32 30 28 28 27 23 21 21 22 24 26 28 29 30 32 33 36 39 41 43
51 57 62 63 63 64 61 61 64 61 59 64 65 62 59 58 55 52 49 50 54 58 61 63 61 60 60 59 58 57 56 56 54 55 56 56 57 57 55 53 52 51 50 49 49 49 49 52 54 53 50 47 45 42 37 34 33 31 33 35 35 36 35 36 36 33 32 28 25 24 21 21 21 22 25 28 29 30 31 34 38 41 42 43 42
50 54 61 65 65 65 63 63 64 59 60 66 66 62 59 57 55 54 52 50 51 53 57 59 58 55 54 57 58 56 55 55 54 54 56 58 58 56 53 52 51 50 49 48 50 50 51 53 54 51 47 44 40 36 33 32 31 29 33 35 34 36 35 35 35 36 36 28 23 22 20 21 22 24 27 28 29 31 35 39 42 43 42 41 40
48 51 58 64 62 61 62 61 61 60 61 62 63 63 61 59 55 52 50 49 48 49 50 52 53 52 50 53 55 55 54 54 56 55 55 58 56 54 52 49 48 47 47 49 51 52 52 51 50 49 47 44 36 32 34 32 29 29 32 34 34 35 35 33 34 36 34 27 23 21 21 22 23 26 27 29 32 36 40 42 42 41 41 42 43
47 49 54 59 58 59 62 60 62 66 64 61 62 61 59 57 55 51 49 49 48 48 48 48 49 49 48 50 54 58 58 54 55 54 52 53 51 52 52 49 48 47 48 50 50 51 51 49 50 49 45 41 35 33 35 31 29 31 33 33 34 35 35 34 34 35 33 27 23 21 21 23 24 26 28 32 37 40 42 41 40 41 44 45 46
46 47 49 53 56 60 63 63 67 70 68 67 64 59 56 56 56 53 48 47 47 48 48 48 48 48 48 48 51 58 61 57 56 54 50 49 48 53 55 52 49 48 48 50 49 49 51 50 49 47 41 38 35 32 30 28 30 33 32 32 34 35 36 36 35 36 33 27 23 22 22 24 26 27 31 36 41 41 40 40 41 44 46 46 45
47 47 48 50 54 58 59 60 63 65 67 70 66 59 56 56 56 51 46 45 46 47 46 45 47 48 48 49 49 52 56 54 53 52 50 49 50 54 55 50 47 46 47 48 48 49 50 48 45 42 39 37 34 30 27 28 32 33 32 32 34 36 37 35 33 33 31 26 23 23 24 25 26 29 34 39 41 40 39 40 42 44 44 43 42
47 48 46 48 53 56 55 56 57 58 64 68 64 58 55 56 54 48 45 45 46 47 45 42 44 46 47 49 50 48 48 47 48 49 48 48 51 51 48 46 45 43 43 43 42 42 43 43 42 40 38 37 32 29 28 30 32 32 32 33 35 36 36 34 32 32 31 29 27 26 25 26 27 30 36 40 39 38 39 40 41 41 40 39 39
48 47 45 48 52 53 53 54 55 56 60 62 61 57 56 56 52 47 46 46 45 44 42 38 38 41 42 44 46 43 41 42 44 46 47 46 47 44 42 42 42 39 38 39 39 40 43 43 40 39 38 35 31 29 30 33 35 35 34 34 35 37 37 35 33 34 32 31 31 30 27 26 28 31 37 40 37 37 38 38 39 38 38 37 38
47 47 46 48 49 51 51 51 54 55 53 57 60 58 55 54 51 49 48 44 42 42 39 35 35 36 36 36 37 36 36 40 42 44 44 43 40 39 40 39 41 40 38 40 40 42 43 42 39 39 39 35 31 31 33 35 36 37 36 34 36 38 37 35 34 34 32 31 32 32 32 31 30 33 39 39 36 36 37 38 39 37 37 37 38
45 47 49 48 47 50 50 49 52 52 50 54 59 57 55 53 51 50 47 42 40 41 39 37 35 32 32 32 31 32 34 37 39 40 40 38 36 37 39 39 43 42 39 38 37 40 41 40 40 40 39 35 33 34 36 38 37 37 37 35 37 37 34 34 34 32 31 31 30 29 32 33 33 36 40 41 37 36 37 39 39 37 36 37 38
44 47 50 49 48 49 50 49 50 50 49 52 56 56 53 50 49 49 48 43 40 40 38 37 37 33 31 31 31 32 33 33 35 38 38 36 36 38 39 42 44 41 41 41 36 37 40 41 42 42 39 36 35 36 36 36 35 36 36 35 37 36 34 36 35 32 31 32 30 29 30 31 34 38 42 45 40 37 38 40 38 36 36 36 37
44 44 49 50 49 49 49 49 50 50 46 46 51 52 50 50 49 49 48 44 40 39 37 35 35 34 31 30 31 32 33 33 33 36 36 35 36 40 41 42 42 41 43 43 38 39 40 40 41 41 40 40 39 36 36 41 43 43 39 35 37 37 35 34 31 29 30 31 31 31 29 31 34 36 42 46 42 38 39 40 37 37 35 35 36
42 44 48 48 48 50 51 49 49 48 41 42 46 48 50 51 50 49 49 46 41 39 38 36 34 33 29 28 30 30 31 33 34 36 38 38 39 42 41 40 41 42 43 42 40 40 40 40 41 40 42 43 41 37 39 46 51 48 40 35 36 37 34 32 30 30 32 31 31 31 29 32 34 33 37 42 42 39 38 38 38 38 37 36 37
41 46 49 49 48 51 52 48 49 46 39 40 43 45 50 51 49 49 50 47 41 39 40 39 36 33 28 27 29 28 29 32 34 37 40 42 43 43 41 40 40 42 44 43 41 41 41 41 42 43 42 41 37 37 38 43 45 41 36 34 35 36 34 33 32 31 30 30 31 33 32 32 32 33 37 40 43 40 36 36 38 40 40 37 37
41 46 50 52 50 52 53 48 49 45 38 40 43 46 49 49 49 49 51 49 43 42 42 40 39 34 28 28 28 27 28 30 33 38 40 42 45 44 42 41 43 45 45 44 43 43 42 39 41 43 44 42 37 36 36 38 38 35 34 34 34 34 33 34 33 30 31 32 34 37 36 34 32 33 35 36 40 40 35 35 38 40 41 41 38
39 44 48 54 52 52 52 49 48 43 38 41 44 47 48 49 51 50 52 49 45 47 45 43 42 35 29 29 29 28 29 29 32 38 41 42 43 44 43 42 45 47 45 40 39 41 41 39 40 43 44 43 38 35 34 34 33 33 33 33 34 34 33 35 36 39 43 40 37 37 38 41 38 31 30 31 36 39 36 34 36 36 37 40 36
35 41 45 52 53 53 52 49 46 43 41 41 44 48 48 50 52 52 53 50 47 50 48 47 45 37 30 31 31 30 30 30 31 35 38 41 41 42 43 42 41 41 41 41 38 38 40 39 41 43 43 41 37 32 32 34 34 33 34 35 35 35 37 40 42 49 53 47 41 37 44 51 42 30 28 30 34 35 34 32 32 32 30 32 32
32 38 43 47 52 53 50 48 47 44 43 42 44 48 48 50 53 54 53 50 50 52 49 50 48 39 33 32 33 32 31 32 32 34 38 42 42 41 42 42 40 39 40 42 41 39 39 39 41 43 42 40 34 30 31 34 36 35 35 37 38 37 40 44 47 51 50 50 49 43 48 52 37 29 34 36 35 31 31 32 32 32 29 28 29
32 36 40 43 49 52 48 46 47 45 44 42 43 46 47 48 50 52 51 48 50 51 50 51 47 41 38 35 34 34 34 34 32 37 44 45 44 44 43 41 40 40 40 43 45 44 43 42 41 42 43 42 35 32 34 34 34 37 37 39 40 41 44 47 49 51 48 52 56 46 47 52 37 31 38 40 36 32 33 33 32 33 33 32 31
34 35 39 41 46 51 46 43 44 45 43 39 38 41 42 45 46 48 48 46 47 47 50 51 45 41 42 39 36 33 36 37 34 40 45 43 44 47 45 42 41 41 42 44 48 47 47 45 43 43 45 44 38 35 36 35 33 37 39 41 44 44 46 46 46 50 51 54 54 43 44 55 46 36 39 42 41 41 39 35 34 36 37 37 34
37 36 39 40 43 47 46 42 42 42 40 34 34 36 37 41 44 46 47 44 44 46 50 51 45 43 43 41 37 33 39 42 37 42 43 38 41 44 45 45 43 44 44 46 49 48 49 48 45 46 46 44 42 38 36 34 33 37 40 41 44 44 45 46 43 47 50 49 51 47 45 52 52 48 50 54 55 54 48 39 36 38 38 39 37
40 38 39 41 42 42 42 44 42 40 38 34 34 33 34 38 40 44 45 42 44 47 50 50 47 48 47 41 39 36 39 44 40 40 40 36 38 40 43 46 47 49 46 46 49 50 50 49 45 44 42 40 40 39 37 36 33 37 41 42 43 41 41 45 45 45 46 45 52 55 50 49 54 58 61 61 59 57 53 46 41 42 41 39 39
43 41 40 43 43 39 38 41 41 41 38 34 33 32 32 34 36 42 42 43 48 48 50 51 48 53 52 43 44 41 38 43 42 38 37 36 38 39 41 44 48 49 45 47 52 51 50 46 41 39 38 37 38 38 39 38 36 38 40 40 41 39 40 44 46 47 48 49 53 56 54 53 54 57 58 57 58 58 56 51 48 48 46 42 41
46 46 42 43 45 41 37 37 39 43 41 35 32 31 31 30 34 40 41 46 51 47 49 54 48 53 54 47 47 44 38 43 43 37 35 36 38 40 40 42 46 46 45 50 53 49 46 42 38 40 39 37 38 37 39 39 40 43 42 39 40 40 40 44 47 50 51 51 53 55 57 58 56 56 55 53 56 59 58 55 50 50 48 45 43
47 50 44 45 49 45 39 36 37 41 42 37 31 30 30 28 31 38 39 44 50 46 48 53 49 50 50 47 48 43 41 45 43 37 35 36 39 41 42 44 45 45 46 50 51 47 45 42 41 43 39 37 38 38 41 41 41 44 42 39 37 37 40 43 46 51 50 47 50 53 57 61 59 58 57 55 56 56 57 57 53 50 49 47 45